Change the Weather History Date:

Sunday, January 12, 2014

  Actual Average Record
Temperature  
Mean Temperature 32 °F 22 °F  
Max Temperature 37 °F 33 °F 57 °F (1987)
Min Temperature 26 °F 11 °F -42 °F (1911)
Degree Days  
Heating Degree Days 33 43  
Month to date heating degree days 467 519  
Since 1 July heating degree days 3996 4109  
Cooling Degree Days 0 0  
Month to date cooling degree days 0 0  
Year to date cooling degree days 0 0  
Moisture  
Dew Point 22 °F    
Average Humidity 72    
Maximum Humidity 92    
Minimum Humidity 52    
Precipitation  
Precipitation 0.05 in 0.00 in 0.24 in (1919)
Month to date precipitation 0.06 0.08  
Year to date precipitation 0.06 0.08  
Snow  
Snow 0.00 in - - ()
Snow Depth 0.00 in    
Sea Level Pressure  
Sea Level Pressure 29.55 in    
Wind  
Wind Speed 25 mph (WNW)    
Max Wind Speed 41 mph    
Max Gust Speed 54 mph    
Visibility 7 miles    
Events Fog , Snow    
T = Trace of Precipitation, MM = Missing Value Source: NWS Daily Summary

Daily Weather History Graph

Daily Weather History Graph

Search for Another Location

Airport or City:

Trip Planner

Search our weather history database for the weather conditions in past years. The results will help you decide how hot, cold, wet, or windy it might be!

Date:

Astronomy

Jan. 12, 2014 Rise Set
Actual Time 8:18 AM MST 4:57 PM MST
Civil Twilight 7:42 AM MST 5:33 PM MST
Nautical Twilight 7:03 AM MST 6:12 PM MST
Astronomical Twilight 6:25 AM MST 6:50 PM MST
Moon 2:30 PM MST (1/12) 5:18 AM MST (1/12)
Length of Visible Light 9h 50m
Length of Day
8h 39m
Waxing Gibbous, 90% of the Moon is Illuminated
Jan 12
Waxing Gibbous
Jan 15
Full
Jan 23
Last Quarter
Jan 30
New
Feb 6
First Quarter

Hourly Weather History & Observations

Time (MST) Temp. Windchill Dew Point Humidity Pressure Visibility Wind Dir Wind Speed Gust Speed Precip Events Conditions
12:56 AM 34.0 °F 20.8 °F 23.0 °F 64% 29.18 in 10.0 mi WSW 27.6 mph 43.7 mph N/A   Clear
1:56 AM 34.0 °F 20.3 °F 23.0 °F 64% 29.20 in 10.0 mi WSW 29.9 mph 44.9 mph N/A   Clear
2:56 AM 33.1 °F 18.2 °F 23.0 °F 66% 29.21 in 10.0 mi WSW 34.5 mph 44.9 mph N/A   Clear
3:56 AM 33.1 °F 18.4 °F 21.9 °F 64% 29.24 in 10.0 mi West 33.4 mph 41.4 mph N/A   Clear
4:56 AM 33.1 °F 19.1 °F 23.0 °F 66% 29.26 in 10.0 mi WSW 29.9 mph 40.3 mph N/A   Clear
5:56 AM 33.1 °F 17.6 °F 21.9 °F 64% 29.28 in 10.0 mi West 38.0 mph 48.3 mph N/A   Clear
6:56 AM 33.1 °F 17.5 °F 21.0 °F 61% 29.33 in 10.0 mi West 39.1 mph 50.6 mph N/A   Clear
7:56 AM 32.0 °F 18.1 °F 21.0 °F 64% 29.43 in 10.0 mi West 27.6 mph 35.7 mph N/A   Clear
8:56 AM 33.1 °F 21.9 °F 21.9 °F 64% 29.55 in 10.0 mi North 18.4 mph 26.5 mph N/A   Overcast
9:03 AM 28.9 °F 16.5 °F 21.9 °F 75% 29.49 in 10.0 mi North 18.4 mph 26.5 mph N/A   Overcast
9:19 AM 27.0 °F 14.3 °F 21.9 °F 81% 29.51 in 1.8 mi North 17.3 mph - 0.00 in Snow Light Snow
9:23 AM 26.1 °F 12.7 °F 21.9 °F 84% 29.52 in 0.8 mi North 18.4 mph - 0.00 in Snow Light Snow
9:39 AM 26.1 °F 14.5 °F 23.0 °F 88% 29.52 in 1.2 mi North 13.8 mph - 0.01 in Snow Light Snow
9:46 AM 26.1 °F 15.0 °F 23.0 °F 88% 29.53 in 0.8 mi North 12.7 mph - 0.01 in Snow Light Snow
9:56 AM 26.1 °F 16.2 °F 23.0 °F 88% 29.63 in 0.2 mi North 10.4 mph - 0.02 in Fog , Snow Heavy Snow
10:07 AM 26.1 °F 17.6 °F 24.1 °F 92% 29.54 in 0.2 mi North 8.1 mph - 0.01 in Fog , Snow Heavy Snow
10:21 AM 27.0 °F 20.5 °F 24.1 °F 89% 29.56 in 0.5 mi North 5.8 mph - 0.02 in Fog , Snow Snow
10:52 AM 26.6 °F 22.6 °F 24.8 °F 93% 29.58 in 1.0 mi North 3.5 mph - 0.03 in Snow Light Snow
10:56 AM 27.0 °F 23.0 °F 24.1 °F 89% 29.67 in 2.0 mi North 3.5 mph - 0.03 in Snow Light Snow
11:04 AM 27.0 °F - 24.1 °F 89% 29.59 in 6.0 mi Calm Calm - 0.00 in Snow Light Snow
11:13 AM 28.0 °F - 25.0 °F 88% 29.59 in 4.0 mi Calm Calm - 0.00 in Snow Light Snow
11:56 AM 28.0 °F 22.8 °F 25.0 °F 88% 29.69 in 10.0 mi SW 4.6 mph - 0.00 in   Mostly Cloudy
12:56 PM 35.1 °F 22.0 °F 19.0 °F 52% 29.68 in 10.0 mi WNW 28.8 mph 34.5 mph N/A   Mostly Cloudy
1:56 PM 36.0 °F 24.7 °F 19.0 °F 50% 29.70 in 10.0 mi West 21.9 mph 29.9 mph N/A   Clear
2:56 PM 33.1 °F 22.2 °F 19.0 °F 56% 29.74 in 10.0 mi West 17.3 mph - N/A   Clear
3:56 PM 32.0 °F 19.8 °F 21.0 °F 64% 29.76 in 10.0 mi West 20.7 mph 27.6 mph N/A   Clear
4:56 PM 30.9 °F 20.2 °F 19.9 °F 64% 29.79 in 10.0 mi WSW 15.0 mph - N/A   Clear
5:56 PM 30.9 °F 16.9 °F 19.0 °F 61% 29.75 in 10.0 mi WSW 26.5 mph 33.4 mph N/A   Mostly Cloudy
6:56 PM 30.9 °F 18.7 °F 19.9 °F 64% 29.75 in 10.0 mi West 19.6 mph - N/A   Clear
7:56 PM 33.1 °F 20.1 °F 19.9 °F 59% 29.70 in 10.0 mi WSW 25.3 mph - N/A   Scattered Clouds
8:56 PM 33.1 °F 18.9 °F 21.9 °F 64% 29.66 in 10.0 mi WSW 31.1 mph 38.0 mph N/A   Clear
9:56 PM 34.0 °F 22.4 °F 23.0 °F 64% 29.67 in 10.0 mi WSW 20.7 mph 27.6 mph N/A   Clear
10:56 PM 36.0 °F 22.0 °F 24.1 °F 62% 29.66 in 10.0 mi West 35.7 mph 46.0 mph N/A   Clear
11:56 PM 37.0 °F 23.9 °F 26.1 °F 65% 29.65 in 10.0 mi West 33.4 mph 43.7 mph N/A   Clear